Other Public Products
Issued by NWS Grand Forks, ND

Home | Current Version | Previous Version | Graphics & Text | Print | Product List | Glossary On
Versions: 1 2 3 4 5 6 7 8 9 10 11 12 13 14 15 16 17 18 19 20 21 22 23 24 25 26 27 28 29 30 31 32 33 34 35 36 37 38 39 40 41 42 43 44 45 46 47 48 49 50
927
FPUS83 KFGF 210331
OPUFGF
PRAIRIE TO PINES WEATHER ROUNDUP
NATIONAL WEATHER SERVICE EASTERN NORTH DAKOTA/GRAND FORKS ND
900 PM CST MON FEB 20 2017

 **SATELLITE DATA USED TO AUGMENT SKY COVER AT AUTOMATED STATIONS**
 *****  WEATHER ACROSS EASTERN NORTH DAKOTA  *****

CITY           SKY/WX    TMP DP  RH WIND       PRES   REMARKS
GRAND FORKS    FAIR      33  28  81 W8        29.72R
GRAND FORKS AF FAIR      32  32 100 CALM      29.71R
GRAND CITY NWS NOT AVBL
BUXTON         NOT AVBL
DEVILS LAKE    FAIR      32  31  96 SW10      29.71S WCI  24
FARGO          FAIR      34  32  92 SW7       29.76R
WAHPETON ARPT  FAIR      32  32 100 SW5       29.79S
$$

 *****  WEATHER ACROSS CENTRAL AND WESTERN NORTH DAKOTA  *****

CITY           SKY/WX    TMP DP  RH WIND       PRES   REMARKS
JAMESTOWN      FAIR      35  32  88 W5        29.74S
BISMARCK       FAIR      36  32  85 E3        29.75F
MINOT          FAIR      37  32  82 SW9       29.69F
MINOT AFB      FAIR      32  29  88 SW8       29.68F WCI  25
GARRISON         N/A     33  30  88 SE3       29.71F
WILLISTON      FAIR      34  29  82 CALM      29.66F
DICKINSON      FAIR      34  26  72 S7        29.68F
HETTINGER      FAIR      40  25  55 SE6       29.74S
$$

 *****  OTHER OBSERVATIONS NORTHEAST NORTH DAKOTA  *****

CITY           SKY/WX    TMP DP  RH WIND       PRES   REMARKS
WALHALLA       NOT AVBL
LANGDON        NOT AVBL
CAVALIER         N/A     32  32 100 W13       29.69R WCI  22
GRAFTON        CLOUDY    32  32 100 W12       29.72R FOG     WCI  23
CANDO          NOT AVBL
FORT TOTTEN      N/A     35  35 100 SW3       29.95S
ROLLA          FAIR      32  32 100 SW10      29.69R WCI  24
RUGBY            N/A     32  32 100 SW8       29.71S WCI  25
 ***** THE ABOVE OBSERVATIONS ARE NON NWS ARE NOT QUALITY
        CONTROLLED AND MAY MIS-REPORT RAIN FOR SNOW...
$$

 *****  OTHER OBSERVATIONS SOUTHEAST NORTH DAKOTA *****

CITY           SKY/WX    TMP DP  RH WIND       PRES   REMARKS
COOPERSTOWN    FAIR      32  32 100 SW7       29.75R FOG
VALLEY CITY    FAIR      36  36 100 W12       29.77R
OAKES          NOT AVBL
GWINNER        FAIR      36  34  93 SW10      29.79S
SHEYENNE NWR     N/A     31  31  99 W6        29.95S
BUFFALO        NOT AVBL
WYNDMERE         N/A     36  36 100 W6          N/A
 ***** THE ABOVE OBSERVATIONS ARE NON NWS ARE NOT QUALITY
       CONTROLLED AND MAY MIS-REPORT RAIN FOR SNOW...
$$

  *****  WEATHER ACROSS NORTHERN MINNESOTA  *****

CITY           SKY/WX    TMP DP  RH WIND       PRES   REMARKS
FLAG ISLAND    CLOUDY    34  32  93 W16G23    29.58R WCI  23
WARROAD        CLOUDY    34  28  80 W10       29.63R
ROSEAU         CLOUDY    34  30  86 W12       29.65R
HALLOCK        FAIR      30  30 100 W7        29.69R WCI  23
THF RVR FALLS  FAIR      32  31  96 W9        29.70R WCI  24
HALSTAD          N/A     32  32  99 W8          N/A  WCI  25
FOSSTON        CLOUDY    32  30  93 SW10      29.73R FOG     WCI  24
BAUDETTE       CLOUDY    35  32  88 W10       29.61R
WASKISH        CLOUDY    34  34 100 W9        29.65R
CROOKSTON      FAIR      34  34 100 W8        29.74R FOG
$$
  *****  WEATHER ACROSS CENTRAL AND WEST MINNESOTA  *****

CITY           SKY/WX    TMP DP  RH WIND       PRES   REMARKS
BEMIDJI        CLOUDY    33  33  97 W14       29.68S WCI  24
PARK RAPIDS    CLOUDY    35  32  88 W10       29.70R
WADENA         CLOUDY    36  34  93 W13       29.74R
DETROIT LAKES  CLOUDY    34  34 100 W7        29.76R
MOORHEAD       FAIR      34  32  93 SW3       29.78R FOG
FERGUS FALLS   FAIR      32  32 100 W3        29.83R FOG
ELBOW LAKE     FAIR      33  33 100 W6        29.79R FOG
MORRIS MN      FAIR      34  34 100 W6        29.80R FOG
STAPLES        CLOUDY    36  36 100 W12       29.73S
WHEATON        FAIR      34  34 100 SW6       29.83R
$$
  *****  WEATHER ELSEWHERE ACROSS MINNESOTA  *****

CITY           SKY/WX    TMP DP  RH WIND       PRES   REMARKS
DULUTH         LGT RAIN  43  42  97 S9        29.59F VSB 1/2
INTRNTL FALLS  LGT RAIN  40  38  93 W14G23    29.55R
ELY            LGT RAIN  43  43 100 SW6       29.56R
CLOQUET        RAIN      45  43  93 SW7       29.60S
BRAINERD       CLOUDY    39  37  92 W12G22    29.71R
HIBBING        CLOUDY    40  40 100 S5        29.59R FOG
ALEXANDRIA     MOCLDY    36  35  96 NW10      29.78R
SAINT CLOUD    CLOUDY    41  39  93 W18G28    29.74R
MINNEAPOLIS    CLOUDY    53  48  83 W21G30    29.71R
$$

  *****  WEATHER ACROSS SOUTH DAKOTA  *****

CITY           SKY/WX    TMP DP  RH WIND       PRES   REMARKS
SIOUX FALLS    FAIR      39  37  92 CALM      29.88R
BROOKINGS      FAIR      39  37  92 W5        29.85R
WATERTOWN      FAIR      38  36  92 W9        29.83R
HURON          FAIR      37  37 100 S6        29.85R
SISSETON         N/A     40  36  86 W9        29.80R
ABERDEEN       FAIR      33  30  88 S8        29.83R
MITCHELL       FAIR      42  37  82 SW7       29.88R
PIERRE         FAIR      40  30  67 SE5       29.80F
MOBRIDGE       FAIR      43  34  70 E9        29.75F
RAPID CITY     FAIR      49  29  46 S9        29.78F
$$

  *****  SOME WEATHER IN NEARBY STATES *****

CITY           SKY/WX    TMP DP  RH WIND       PRES   REMARKS
GLASGOW MT     LGT RAIN  45  39  79 SW9       29.60S
GREAT FALLS MT FAIR      34  30  85 W3        29.62R
CHEYENNE WY    FAIR      45  17  32 S9        29.99F
SCOTTSBLUFF NE FAIR      42  23  46 W3        29.94F
OMAHA NE       FAIR      47  40  76 NW7       29.94R
DES MOINES IA  CLOUDY    58  51  78 NW21      29.89R
DAVENPORT IA   LGT RAIN  59  56  89 SW8       29.90S
CHICAGO IL     CLOUDY    60  45  57 S15       29.93F
EAU CLAIRE WI  CLOUDY    52  52 100 SW8       29.72R
LA CROSSE WI   LGT RAIN  55  53  93 S15       29.77S
$$

  *****  SOME NATIONAL WEATHER *****

CITY           SKY/WX    TMP DP  RH WIND       PRES   REMARKS
LA GUARDIA NY  FAIR      45  15  30 NE14G25   30.34R
RALEIGH NC     MOCLDY    51  39  63 CALM      30.22R
ATLANTA GA     MOCLDY    64  46  52 E7        30.13F
NEW ORLEANS LA CLOUDY    71  68  90 SE18G25   29.94F
OKLAHOMA CITY  FAIR      51  49  92 CALM      29.92R
ALBUQUERQUE NM FAIR      53  27  36 N5        30.25R
SALT LAKE CITY MOCLDY    54  38  54 S25G38    29.97S
LOS ANGELES CA CLOUDY    59  56  89 E5        30.29R
BOISE ID       CLOUDY    49  40  71 SE9       29.78S
SEATTLE WA     LGT RAIN  44  43  96 SE8       29.71S FOG
$$

*** WEATHER ACROSS MANITOBA...SASKATCHEWAN AND ONTARIO ***
                ***ONTARIO***

CITY           SKY/WX    TMP DP  RH WIND       PRES   REMARKS
GERALDTON      LGT RAIN  37  32  81 S14G21    29.72S
THUNDER BAY    LGT RAIN  36  36 100 E12       29.63F FOG
SIOUX LOOKOUT  LGT RAIN  39  39 100 S8        29.46F FOG
TORONTO        MOCLDY    34  21  60 E8        30.31F
BIG TROUT LK   LGT RAIN  34  34 100 SE12      29.46F
PICKLE LAKE    NOT AVBL
DRYDEN         LGT RAIN  41  39  93 SW12      29.45F FOG
KENORA         LGT RAIN  32  32 100 W10G20    29.55R VSB 3/4 WCI  24
$$
                *** MANITOBA***

CITY           SKY/WX    TMP DP  RH WIND       PRES   REMARKS
BRANDON        CLOUDY    34  32  93 NW14      29.67R WCI  24
DAUPHIN        CLOUDY    36  32  87 W12G17    29.63S
ISLAND LAKE    LGT RAIN  34  34 100 W7        29.40  VSB 3/4
PILOT MOUND      N/A     32  30  93 W6          N/A
THE PAS        CLOUDY    32  27  80 W3        29.57F
THOMPSON       CLOUDY    23  21  93 NW5       29.51F WCI  17
WINNIPEG       PTCLDY    32  30  93 W9        29.64S WCI  24
LYNN LAKE      CLOUDY    19  18  93 NE7       29.55F WCI  10
CHURCHILL      LGT SNOW  10   7  85 E22       29.70F VSB 3/4 WCI  -9
GILLAM         FRZ DRZL  23  21  93 NE8       29.48F WCI  14
$$
                ***SASKATCHEWAN***

CITY           SKY/WX    TMP DP  RH WIND       PRES   REMARKS
ESTEVAN        PTCLDY    32  28  86 SW2       29.66F
KINDERSLEY     PTCLDY    30  28  93 NE5       29.60S
LLOYDMINSTER   CLOUDY    32  28  86 W5        29.62S
PRINCE ALBERT  CLOUDY    34  30  86 W3        29.62S
REGINA         PTCLDY    30  30 100 E6        29.63F WCI  24
YORKTON        CLOUDY    36  30  80 W9        29.64S



USA.gov is the U.S. government's official web portal to all federal, state and local government web resources and services.